Lid_Strength_Index
11 13 14 12 10 11 11 11 12 10 8 9 10 10 10 8 8 8 7 7 6 6 4 3 2 2 2 2 2 1 1 1 1 1 2 2 3 2 2 1 1 0 1 0
12 14 11 10 10 10 12 13 13 11 9 10 10 10 9 9 8 8 8 7 6 5 5 4 3 2 2 2 2 2 1 1 1 1 1 2 2 2 1 1 1 0 0 0
12 11 9 10 10 11 12 13 13 12 10 10 10 12 10 9 8 7 7 6 6 6 5 4 4 3 2 2 2 2 1 1 1 1 1 1 1 1 1 2 1 1 -0 -0
10 8 9 11 10 10 12 10 11 12 12 15 11 18 13 11 10 8 8 7 6 5 5 4 4 3 3 2 2 2 2 1 1 1 1 2 2 3 2 2 1 1 0 0
11 10 10 11 10 8 10 9 10 11 14 15 13 14 14 11 12 10 8 7 6 5 5 4 4 3 2 2 2 1 1 1 1 1 1 1 2 2 1 2 2 1 0 0
11 8 8 9 8 8 7 9 10 12 15 17 14 14 15 13 11 10 8 7 6 5 5 4 3 3 3 2 2 2 2 2 1 1 1 1 2 2 2 3 3 2 1 0
11 10 9 8 10 8 9 12 17 17 18 16 13 15 12 10 9 8 8 7 6 5 5 4 4 4 3 3 2 2 2 2 1 1 1 1 1 1 2 2 3 3 2 2
17 14 10 9 9 10 10 11 16 21 19 16 14 16 14 8 7 7 6 6 5 5 5 4 4 3 3 3 2 2 2 2 2 1 1 1 1 1 1 1 2 2 2 1
16 16 11 8 8 8 11 13 11 16 18 17 14 15 13 11 7 7 7 6 6 5 5 4 4 3 3 3 3 2 2 2 2 2 1 1 1 1 1 1 1 1 2 1
13 18 12 9 8 8 9 10 14 16 18 18 17 16 15 13 11 8 8 7 6 5 5 4 4 3 3 3 2 2 2 2 2 1 1 1 1 1 1 1 2 2 2 1
11 15 14 11 11 12 12 12 12 12 16 16 19 14 13 12 11 10 7 6 6 5 5 4 4 3 3 2 2 2 2 2 2 2 1 1 1 1 1 1 1 1 2 1
11 13 16 14 11 11 10 12 15 14 16 18 17 14 10 10 10 10 8 6 5 5 5 4 4 3 3 3 3 3 2 2 2 1 1 2 1 1 1 1 1 2 1 2
11 14 19 15 14 12 14 11 13 13 15 16 15 13 10 9 9 10 10 6 5 5 5 4 4 4 3 3 3 3 2 2 2 2 2 2 2 1 1 1 1 2 2 1
9 13 18 19 17 15 16 14 12 14 16 15 13 11 10 10 10 9 10 8 5 5 5 5 4 4 3 3 3 3 2 2 2 2 2 2 2 2 1 1 1 1 2 2
12 16 17 16 16 16 16 16 14 15 13 14 13 13 11 11 10 8 7 8 8 5 5 5 4 4 3 3 3 3 2 2 2 2 2 2 2 1 1 1 1 1 1 1
12 16 17 17 14 15 16 13 12 12 12 13 13 13 12 9 8 8 7 8 6 6 5 5 4 4 4 3 3 3 3 2 2 2 2 2 2 1 2 1 1 1 1 1
14 16 19 20 14 13 14 13 12 11 11 12 13 12 9 10 9 9 8 7 6 5 5 5 4 4 3 3 3 3 3 2 2 2 2 2 2 2 2 2 1 2 2 1
14 16 18 20 15 18 14 11 11 11 10 10 10 10 9 9 8 7 7 7 7 5 5 4 4 3 3 3 2 2 2 2 2 3 2 2 2 2 2 2 2 2 1 2
13 15 19 20 16 13 12 12 13 13 12 10 11 9 8 8 7 8 6 6 6 6 6 5 3 3 3 3 2 2 3 3 3 3 2 2 2 2 2 2 2 2 2 2
13 14 16 19 18 20 13 11 10 9 15 11 10 12 9 8 12 10 6 5 5 5 4 6 5 4 3 3 2 3 3 3 3 3 2 2 2 2 2 2 2 2 1 2
15 15 18 17 17 14 11 10 10 16 15 11 11 11 11 10 8 7 7 8 6 5 4 4 4 6 6 5 3 3 3 3 2 2 2 2 2 2 2 2 2 2 2 2
15 17 16 15 17 19 10 11 15 13 11 11 10 10 11 11 11 8 8 8 7 6 4 4 4 4 3 3 3 4 4 3 2 2 2 2 2 2 2 2 2 2 2 2
16 15 16 15 15 10 9 10 11 11 11 12 10 11 10 11 11 11 10 8 8 6 6 5 4 4 3 3 3 4 4 3 2 3 3 3 2 2 2 2 2 2 2 3
12 11 15 15 13 13 10 10 11 11 11 11 10 10 10 11 11 9 9 7 6 7 6 5 4 4 5 4 3 3 4 4 3 3 3 3 3 3 2 2 2 2 3 3
12 12 15 15 14 12 11 11 11 11 11 11 11 10 10 10 8 8 7 6 6 6 6 5 5 4 4 4 4 4 3 2 4 4 3 4 4 4 4 10 9 4 3 4
11 13 15 16 13 13 13 11 10 12 11 10 11 10 9 9 9 8 8 7 6 6 5 5 5 5 4 4 3 3 3 3 3 4 5 5 4 4 6 9 10 16 17 18